Printer-friendly version

IAU Minor Planet Center

Minor Planet Center

MPEC 2007-F54 : 2007 FN3

The following Minor Planet Electronic Circular may be linked-to from your own Web pages, but must not otherwise be redistributed electronically.


Read MPEC 2007-F53 Read MPEC 2007-F55


M.P.E.C. 2007-F54                                Issued 2007 Mar. 21, 16:01 UT

     The Minor Planet Electronic Circulars contain information on unusual
         minor planets and routine data on comets.  They are published
   on behalf of Commission 20 of the International Astronomical Union by the
          Minor Planet Center, Smithsonian Astrophysical Observatory,
                          Cambridge, MA 02138, U.S.A.

             Prepared using the Tamkin Foundation Computer Network

                              MPC@CFA.HARVARD.EDU
          URL http://cfa-www.harvard.edu/iau/mpc.html  ISSN 1523-6714

                                   2007 FN3

Observations:
     K07F03N* C2007 03 20.25502 11 14 22.63 +04 46 05.9          20.7 V EF054G96
     K07F03N  C2007 03 20.26765 11 14 18.74 +04 49 43.5          20.5 V EF054G96
     K07F03N  C2007 03 20.27395 11 14 16.72 +04 51 31.2          20.9 V EF054G96
     K07F03N  C2007 03 20.40196 11 13 37.10 +05 28 06.9                 EF054G96
     K07F03N  C2007 03 20.40267 11 13 36.88 +05 28 21.2                 EF054G96
     K07F03N  C2007 03 20.40409 11 13 36.53 +05 28 41.8                 EF054G96
     K07F03N  C2007 03 21.19991 11 09 45.45 +09 17 39.6          20.2 V EF054G96
     K07F03N  C2007 03 21.20062 11 09 45.21 +09 17 53.1          19.5 V EF054G96
     K07F03N  C2007 03 21.20132 11 09 45.01 +09 18 04.7          19.4 V EF054G96
     K07F03N  C2007 03 21.20203 11 09 44.75 +09 18 17.7                 EF054G96

Observer details:
G96 Mt. Lemmon Survey.  Observer A. R. Gibbs.  Measurers E. C. Beshore,
    E. J. Christensen, G. J. Garradd, A. R. Gibbs, A. D. Grauer, R. E. Hill,
    R. A. Kowalski, S. M. Larson, R. H. McNaught.  1.5-m reflector + CCD.

Orbital elements:
2007 FN3                                                 Earth MOID = 0.1483 AU
Epoch 2007 Apr. 10.0 TT = JDT 2454200.5                 MPC
M 265.27511              (2000.0)            P               Q
n   0.99512464     Peri.  138.49691     +0.72998183     +0.68273849
a   0.9936141      Node   177.59855     -0.62711936     +0.65073882
e   0.2620216      Incl.   48.82410     +0.27174959     -0.33227569
P   0.99           H   23.2           G   0.15           U   9
Residuals in seconds of arc
070320 G96  0.0   0.6-    070320 G96  0.4-  1.9+    070321 G96  0.2+  0.1-
070320 G96  0.5+  0.5+    070320 G96  0.8+  1.8-    070321 G96  0.3-  0.6+
070320 G96  0.5-  0.2+    070321 G96  0.2+  0.8-
070320 G96  0.4-  0.2-    070321 G96  0.1-  0.4+

Ephemeris:
2007 FN3                 a,e,i = 0.99, 0.26, 49                  q = 0.7333
Date    TT    R. A. (2000) Decl.     Delta      r     Elong.  Phase     V
2007 03 21    11 10.73   +08 20.2    0.158    1.149   165.3    12.7    20.2
2007 03 23    11 00.61   +17 53.3    0.159    1.143   155.2    21.4    20.5
2007 03 25    10 50.06   +26 56.1    0.165    1.136   145.1    30.2    20.9
2007 03 27    10 39.17   +35 01.6    0.175    1.130   135.6    38.2    21.2
2007 03 29    10 28.04   +41 58.2    0.189    1.123   127.3    45.0    21.6
2007 03 31    10 16.75   +47 46.3    0.205    1.116   120.0    50.8    21.9

Kyle E. Smalley              (C) Copyright 2007 MPC           M.P.E.C. 2007-F54

Read MPEC 2007-F53 Read MPEC 2007-F55


Our Web policy. Index to the CBAT/MPC/ICQ pages.


Valid HTML 4.01!